Theta_e
300 300 300 300 301 301 301 301 301 300 301 293 292 297 296 297 293 304 308 311 309 302 294 296 294 292 295 298 297 296 294 293 292 292 292 292 294 291 291 291 290 290 292 289 288 290 286 287 287 286 286 290 295 294 295 293 292 292 286 289 286 293 281 279 284 286 287 289 290 289 285 286 285 285 284 284 283 285 284 283 284 281 282 281 281 278 282
300 299 299 299 300 300 300 300 301 300 300 292 293 295 295 297 297 300 308 310 307 299 288 288 291 293 296 296 295 296 293 292 292 292 291 291 289 290 289 290 294 291 291 289 289 288 285 288 290 288 288 288 291 292 292 293 290 292 286 288 288 283 283 285 281 282 282 283 285 287 285 285 283 284 287 287 286 285 286 285 285 280 281 282 279 274 281
299 299 298 298 299 299 299 299 300 300 300 297 291 290 293 292 295 297 301 307 303 294 297 293 291 292 292 293 292 294 294 294 295 295 291 292 291 291 288 292 290 290 290 289 290 289 290 286 288 287 284 287 285 286 288 292 290 291 291 294 291 286 284 284 278 276 275 274 276 277 278 280 281 283 285 285 285 285 282 278 280 277 282 283 279 279 286
299 299 299 299 299 298 298 298 298 300 300 299 292 289 291 289 279 284 294 301 299 298 300 296 293 290 289 290 292 294 291 293 291 294 293 296 291 292 289 288 290 287 288 288 289 289 289 288 285 286 284 284 285 286 286 289 289 291 292 288 288 285 284 285 285 282 280 282 284 286 286 285 283 283 282 284 285 283 283 282 280 278 282 281 282 283 284
300 300 299 299 299 299 299 298 298 298 299 299 290 288 289 288 283 282 278 290 293 293 297 294 295 289 294 287 291 289 291 290 290 293 287 289 293 289 291 290 288 286 288 287 288 288 287 288 288 286 288 286 286 285 285 286 287 292 289 289 285 284 283 285 285 285 285 286 286 287 287 284 285 285 285 286 285 284 283 281 279 285 281 277 285 285 283
300 300 299 299 299 299 298 298 298 298 298 299 291 284 289 279 280 285 288 287 282 286 288 294 293 293 292 288 291 288 287 287 286 288 289 288 288 286 284 289 290 290 288 286 284 286 286 285 285 288 284 283 282 283 282 282 286 286 283 284 285 283 282 285 286 284 286 286 285 286 285 285 285 285 285 284 285 284 281 282 284 284 279 278 283 285 283
300 300 299 299 299 298 298 298 298 298 298 298 286 281 281 284 283 284 287 283 286 286 286 286 289 290 292 289 289 286 286 285 287 285 283 287 285 290 283 286 288 288 287 286 285 287 282 282 287 283 280 279 280 279 282 284 283 282 281 282 283 284 280 284 284 282 283 283 284 283 283 284 284 284 284 284 283 283 283 283 284 284 283 285 284 284 285
301 300 300 299 299 298 298 298 298 298 299 291 284 282 280 280 283 279 286 285 284 284 282 283 285 285 290 287 289 288 286 284 286 286 285 282 284 286 286 286 287 285 285 286 285 286 288 286 283 282 280 280 283 281 284 281 280 281 279 282 282 285 278 286 281 280 280 283 284 283 282 282 280 282 283 282 282 282 283 283 283 284 282 284 284 283 280
300 300 300 300 299 299 298 298 298 297 298 288 286 281 284 285 286 287 283 281 281 281 281 282 282 283 286 285 287 290 289 288 288 287 290 287 285 285 285 286 286 283 283 285 286 285 282 282 283 284 282 280 283 279 279 282 277 280 279 282 281 282 278 283 280 276 276 281 280 281 281 280 278 277 278 279 279 277 279 279 280 279 278 280 278 278 276
300 300 300 300 299 299 299 298 298 298 299 290 289 284 285 282 282 287 286 279 283 279 280 278 280 279 284 285 285 285 284 281 284 284 288 285 286 285 284 284 284 283 284 283 284 283 283 283 285 286 285 285 283 283 283 284 281 280 279 284 280 282 279 277 277 274 273 279 279 278 276 275 272 273 277 278 278 280 280 279 276 277 279 277 277 276 275
300 300 300 300 300 299 299 298 298 298 297 289 287 284 282 282 281 279 282 278 278 277 278 276 277 280 277 279 278 280 280 281 281 281 282 285 284 286 285 283 282 281 281 284 287 287 287 288 286 286 285 284 284 284 284 284 284 282 280 280 280 281 279 276 279 272 272 275 274 272 270 265 266 275 276 280 278 278 278 277 275 277 278 273 276 274 277
300 299 299 299 300 299 299 298 298 299 299 292 289 284 283 283 280 279 278 275 276 278 277 275 277 278 277 277 277 277 278 280 280 283 279 282 283 284 284 283 284 277 286 285 287 287 287 287 287 286 284 284 283 284 283 282 283 285 283 280 277 277 276 273 273 271 269 271 268 268 263 265 276 277 277 276 276 275 274 275 277 277 277 277 275 277 276
301 300 299 299 299 299 299 299 299 298 299 294 291 286 286 286 285 281 279 277 272 275 273 274 277 277 277 276 276 276 278 279 282 282 282 281 281 283 285 284 282 284 287 285 286 284 280 278 280 280 280 281 281 282 281 280 280 281 281 282 278 275 274 269 268 268 267 267 266 261 262 271 277 276 276 276 275 276 275 274 276 277 277 276 274 277 277
302 302 301 300 299 299 299 299 298 298 298 297 291 289 287 287 284 282 282 278 276 277 276 276 276 275 276 276 276 277 276 276 277 280 278 282 281 282 284 286 287 287 285 286 282 281 277 279 270 273 275 275 273 273 276 277 277 278 278 279 281 278 276 271 267 273 266 268 266 267 271 269 272 269 272 273 273 275 274 270 275 276 278 277 275 277 278
302 301 302 302 301 299 299 299 299 299 299 301 293 291 289 290 288 283 283 282 275 278 278 271 275 275 276 275 276 274 274 275 274 274 277 278 278 279 281 282 283 283 284 282 280 280 276 272 267 268 263 261 262 260 271 268 275 277 277 278 279 280 275 276 272 269 275 267 267 269 270 267 272 273 274 278 278 279 279 275 271 274 271 276 277 276 277
301 301 301 301 301 301 300 299 299 299 299 300 294 291 291 292 290 287 283 280 279 273 278 281 279 276 276 275 276 275 273 275 274 274 274 275 275 277 278 279 279 280 280 278 277 274 269 266 263 263 262 261 261 262 258 268 267 273 276 277 278 279 280 278 275 271 273 268 267 266 266 268 271 270 273 275 278 279 279 273 267 274 271 274 277 276 277
301 301 301 301 300 300 300 300 300 300 299 299 292 291 289 292 290 288 284 283 281 275 281 278 280 279 276 275 278 276 277 275 276 272 270 273 276 275 274 274 276 280 279 276 276 274 270 268 266 265 263 264 257 260 264 263 260 262 273 272 268 271 271 275 272 271 270 269 267 264 267 263 270 270 272 275 276 277 275 266 267 272 272 275 277 276 276
301 301 301 300 300 300 300 300 300 300 299 300 296 290 289 291 291 288 285 284 280 279 284 281 278 277 276 277 276 279 277 274 274 275 275 273 270 273 271 272 273 276 280 275 275 267 266 265 266 268 266 273 269 270 260 265 255 259 263 268 262 263 264 265 266 267 268 271 266 267 268 272 270 271 273 273 275 273 264 262 268 272 271 273 276 275 274
300 300 301 300 300 300 301 300 300 300 300 300 297 291 291 292 292 291 287 284 282 277 284 285 285 281 281 282 279 279 279 279 278 276 270 270 270 271 273 271 276 269 274 271 273 263 265 265 266 261 263 262 271 262 268 265 265 269 267 267 265 263 262 262 262 262 265 264 265 266 265 268 267 269 272 273 270 260 263 268 271 269 272 271 274 274 275
300 300 300 300 300 300 300 301 301 301 300 300 298 289 291 293 293 291 287 282 284 281 283 281 282 280 282 280 277 277 276 278 277 275 270 268 270 274 274 272 273 267 268 273 269 270 265 267 268 265 262 262 262 270 262 266 271 267 268 268 267 264 262 257 258 262 260 263 262 262 261 267 269 273 271 271 264 265 271 270 271 273 271 271 272 274 275
300 300 299 300 300 300 300 301 300 299 299 301 298 291 289 293 293 292 291 288 284 280 281 286 283 283 283 282 283 282 281 278 278 276 277 277 276 273 268 267 268 263 266 270 266 268 265 261 263 264 268 267 267 265 262 259 261 268 270 267 266 268 261 258 262 266 261 261 260 260 264 269 273 270 265 268 272 275 272 271 273 274 274 273 274 275 276
299 299 299 299 299 300 300 300 300 300 300 299 300 293 288 292 293 292 292 289 285 282 283 284 285 285 286 287 286 286 284 283 283 284 278 274 276 278 273 270 263 260 262 266 264 263 262 259 257 257 261 262 260 263 258 257 261 261 262 265 261 269 267 267 267 266 264 261 265 269 271 272 275 274 274 275 276 275 272 273 274 274 274 275 274 276 276
299 299 299 299 299 300 300 300 299 299 300 301 298 291 288 291 291 293 290 285 287 287 287 284 285 284 286 286 286 286 286 287 285 283 283 280 276 278 277 276 273 275 274 276 272 269 269 264 268 265 260 263 269 265 258 265 261 260 263 270 270 272 272 271 269 267 272 272 273 275 273 274 275 277 277 276 276 275 274 273 272 274 275 276 276 276 276
299 298 299 299 299 299 299 299 299 300 300 299 297 291 289 291 292 290 287 287 284 281 284 285 282 280 282 283 286 286 285 284 286 286 286 285 277 274 277 279 280 277 273 277 278 277 271 267 270 269 269 271 266 264 266 263 263 263 262 263 267 270 272 269 269 273 269 265 274 272 274 275 275 276 277 275 274 275 275 273 275 275 276 276 275 276 276
298 299 299 299 299 298 299 299 298 298 299 299 298 296 290 286 290 289 285 280 280 280 275 280 281 285 288 290 289 286 286 288 289 287 285 285 283 279 276 279 283 279 277 279 280 273 268 270 270 269 268 273 272 268 273 268 268 271 263 268 267 269 274 271 271 271 270 269 274 274 275 276 276 276 275 275 276 275 275 275 275 276 276 275 275 274 274
298 298 298 298 298 298 298 298 298 298 298 299 298 289 286 288 291 290 288 288 285 281 276 275 278 284 287 285 284 287 289 288 287 286 286 286 286 285 283 281 279 282 280 280 278 277 274 268 269 271 270 272 278 272 271 274 272 274 271 270 274 273 274 262 268 270 272 274 274 274 275 275 275 275 275 276 276 276 276 276 275 274 274 274 273 272 273
298 299 298 298 297 298 297 297 298 298 298 298 296 289 289 290 292 289 287 286 282 276 279 276 279 278 280 282 283 283 286 286 286 286 285 286 285 285 284 282 281 280 279 279 279 277 271 272 272 271 274 273 276 271 274 270 273 270 270 274 276 273 270 272 269 266 268 268 271 274 266 268 273 274 274 275 274 273 273 273 271 271 270 270 269 270 270
298 298 297 297 297 297 298 298 298 298 298 298 296 291 289 287 290 291 290 287 284 278 276 275 276 277 280 274 281 284 285 286 285 284 284 284 284 284 283 282 282 281 280 279 275 275 273 272 272 277 277 275 273 271 277 277 277 273 273 274 277 273 274 273 269 268 268 273 275 276 275 274 275 276 276 273 271 272 271 271 270 268 268 267 267 268 268
298 298 298 297 297 298 298 298 297 298 298 297 286 285 285 289 291 292 292 289 285 283 281 279 276 273 273 275 281 282 283 284 283 283 283 283 283 283 282 282 281 282 282 281 279 278 275 275 279 276 274 278 274 271 273 269 270 268 272 276 277 277 277 276 275 275 275 277 277 276 273 273 275 274 271 269 269 269 269 267 267 267 266 266 265 266 265
297 297 297 297 297 298 297 297 297 297 297 289 284 284 282 284 290 290 293 291 288 286 279 277 274 277 279 278 276 280 281 283 282 282 281 281 281 281 282 281 282 283 282 280 279 274 277 277 278 279 280 281 274 272 271 271 270 272 276 277 277 277 278 278 278 276 275 278 277 274 273 274 273 270 269 266 265 266 266 266 266 265 265 265 264 264 264
297 297 298 298 298 297 297 297 297 297 295 286 285 279 277 276 283 291 293 292 290 285 280 280 276 279 273 277 277 278 280 282 280 281 281 281 281 281 282 282 282 282 278 280 279 278 279 275 277 277 280 280 279 271 271 270 269 271 276 277 277 277 277 277 279 278 277 277 273 269 269 271 271 270 268 264 264 265 264 264 265 265 265 264 264 264 264
297 297 298 296 296 297 297 296 297 297 290 286 284 282 282 282 284 289 293 293 289 283 279 275 275 275 273 275 275 278 281 281 281 280 279 282 279 281 279 281 279 282 281 279 280 278 276 278 277 277 275 280 279 269 272 271 269 271 276 276 277 277 277 276 276 269 265 266 268 271 271 272 267 267 267 264 264 264 263 263 264 263 264 264 263 263 262
296 297 297 296 296 296 297 297 297 294 288 290 294 296 295 294 294 293 294 290 286 282 282 277 273 275 272 271 271 272 278 276 274 278 274 280 277 278 277 280 280 280 285 279 275 274 279 278 278 275 277 279 272 273 272 270 272 276 277 277 278 277 274 268 266 264 264 263 267 270 272 268 264 264 263 263 263 263 263 263 262 262 260 259 259 260 260
296 297 297 297 296 296 296 296 295 295 294 288 284 285 290 293 291 293 289 287 283 283 281 276 272 272 271 270 267 271 281 276 273 277 269 275 275 277 273 276 279 276 280 277 279 278 277 277 274 273 276 275 277 271 269 272 276 276 277 277 272 266 267 267 265 263 262 262 262 261 262 262 262 262 262 262 262 262 262 261 259 258 258 258 259 260 260
295 296 297 297 295 296 295 294 289 288 284 285 285 286 290 294 294 294 290 286 279 277 277 276 276 272 270 267 268 271 276 276 272 276 273 271 279 276 274 269 275 273 275 282 277 277 275 275 277 269 270 273 271 268 271 274 276 277 276 277 267 265 265 265 263 260 260 261 259 259 260 260 260 260 260 260 259 260 259 258 258 258 257 258 259 259 258
295 296 296 295 295 295 289 290 287 284 282 283 283 291 294 295 294 291 290 288 283 277 276 275 276 272 272 269 269 272 280 274 275 275 275 269 268 273 272 273 270 275 279 277 273 276 273 278 273 269 274 269 269 271 273 275 275 275 275 271 263 262 262 263 260 258 258 258 257 258 259 258 258 258 258 258 259 258 258 257 257 256 256 257 257 258 257
296 295 295 295 290 285 282 283 288 286 283 287 289 294 295 293 289 289 287 285 284 283 276 273 271 272 273 270 271 270 275 266 275 270 268 268 267 264 267 269 269 274 273 269 270 271 276 281 273 271 270 268 271 275 268 264 264 265 262 259 260 260 259 259 258 257 255 255 255 257 257 255 256 256 257 257 257 257 255 255 255 255 254 254 255 255 255
296 296 289 283 282 280 279 282 282 285 293 292 292 286 282 284 278 281 282 279 281 281 277 276 273 274 276 274 269 277 276 271 276 270 262 263 269 265 268 270 269 274 265 268 271 278 271 270 268 270 271 275 266 260 260 260 259 258 258 258 258 258 257 257 257 255 255 259 257 255 253 254 254 255 255 255 254 254 255 255 255 254 255 255 255 255 254
294 288 283 283 281 277 277 277 289 294 289 288 285 280 277 279 276 273 273 276 278 274 278 276 273 276 275 273 273 281 277 272 269 268 267 274 271 265 267 265 271 272 264 262 265 276 265 266 267 267 269 270 267 261 257 258 257 257 257 257 257 257 257 256 257 256 255 256 255 254 254 255 255 254 254 254 254 255 255 254 254 254 254 254 253 253 253
285 280 280 280 279 280 284 286 294 290 285 280 279 277 272 277 273 269 274 268 269 267 272 271 278 277 277 274 272 272 280 274 269 268 271 268 277 267 269 264 268 267 261 264 265 268 263 258 262 263 266 271 265 256 257 256 255 255 256 256 256 257 257 256 256 256 256 255 256 255 255 255 254 254 253 253 252 252 252 252 253 253 252 252 253 253 252
283 281 280 278 278 280 281 283 283 278 279 276 274 275 272 268 271 269 271 268 267 266 267 268 273 273 277 278 277 273 278 278 269 267 269 266 273 270 262 263 268 262 261 260 267 258 255 252 255 259 267 259 254 254 254 254 254 255 255 255 256 256 256 255 256 255 255 254 253 253 252 251 251 251 252 251 251 251 251 251 251 252 252 251 251 252 253
284 281 281 283 282 281 280 280 277 276 275 275 270 268 271 268 266 264 268 266 268 265 264 270 267 270 269 274 271 274 270 273 269 272 269 266 274 269 263 262 266 264 262 265 258 256 259 258 255 256 256 251 252 251 252 252 254 253 254 255 255 255 254 254 254 253 253 252 252 252 252 251 250 251 251 251 251 251 251 251 251 251 251 251 252 252 252
288 286 284 279 278 276 278 274 275 274 270 270 268 264 269 265 267 266 265 267 263 264 265 269 268 276 274 272 267 271 272 277 272 268 266 264 273 268 262 263 261 260 265 261 260 261 258 258 255 261 251 251 251 251 251 251 252 253 254 255 254 254 254 253 253 252 252 252 251 251 251 250 250 251 251 251 250 250 250 251 251 251 251 251 251 251 251
285 283 278 276 275 276 277 267 276 269 267 267 267 264 265 262 263 262 260 262 262 264 267 270 269 272 269 272 272 270 269 274 275 263 263 268 266 263 263 259 262 266 263 261 261 259 261 258 261 256 251 252 252 254 254 254 253 254 252 254 254 254 254 254 253 253 252 252 251 251 250 250 250 250 250 250 249 249 249 249 250 251 251 251 251 251 251
279 275 275 273 270 275 271 266 272 267 265 266 269 263 264 264 265 264 267 265 267 268 270 271 272 272 270 268 266 268 274 264 271 266 264 266 262 262 260 261 261 259 261 261 257 257 256 260 254 248 252 251 253 253 253 253 253 252 252 252 252 253 252 252 252 251 251 251 250 251 250 250 250 250 250 250 250 250 249 249 250 250 250 250 250 250 251
276 273 272 268 266 271 269 265 263 261 265 268 265 262 264 264 264 265 266 262 265 264 269 270 269 271 267 266 270 268 263 263 266 267 266 263 262 261 263 261 263 261 258 256 256 258 262 264 256 251 253 253 253 253 252 252 252 252 251 250 251 251 251 250 250 250 251 251 251 251 251 251 250 250 250 250 250 250 250 250 250 250 250 249 249 249 250
276 276 271 271 267 269 269 264 263 263 261 260 259 263 267 267 263 264 261 259 262 265 264 263 267 268 268 265 266 266 263 262 261 264 262 260 259 262 267 261 259 258 257 256 254 253 259 256 251 253 253 252 251 251 250 251 250 250 250 250 250 250 251 250 250 250 251 251 251 251 250 250 250 250 250 250 249 249 250 250 250 250 249 249 249 250 251
272 273 271 266 265 268 266 266 260 258 256 256 255 256 256 257 262 262 259 259 261 265 266 267 266 266 266 266 265 264 262 260 261 264 265 264 265 260 261 261 259 259 255 255 260 259 255 251 252 252 251 251 250 249 249 249 249 249 249 249 249 249 249 249 249 249 250 249 249 249 250 249 249 249 249 249 249 249 249 249 249 249 249 249 250 251 251
271 268 269 267 266 265 264 262 264 266 259 256 255 256 257 263 262 259 258 259 261 263 263 263 264 265 263 267 267 268 266 267 261 262 264 262 261 261 260 257 255 254 257 258 258 250 250 251 249 249 248 248 248 248 249 248 248 248 248 248 248 249 249 248 249 249 249 249 249 249 249 250 250 249 249 249 248 249 250 250 249 249 250 250 250 251 252
268 265 262 260 261 262 260 259 264 262 258 257 258 257 257 259 258 256 259 258 259 259 265 270 273 271 267 266 263 264 262 262 263 265 261 261 261 258 256 254 252 256 256 250 247 249 249 248 247 246 246 245 247 248 247 247 248 249 248 248 248 248 248 248 248 249 249 249 249 249 248 248 248 248 248 248 249 250 250 249 249 249 250 251 252 252 253
265 265 260 259 261 263 264 263 264 262 260 261 261 258 258 259 260 257 260 258 260 263 265 264 266 262 264 264 263 261 263 263 261 261 261 259 255 256 256 260 258 252 250 250 249 250 248 245 243 244 242 243 244 247 247 249 246 246 247 247 247 248 248 248 248 248 249 249 248 249 247 247 248 248 248 249 249 249 249 250 251 250 251 252 252 253 254
266 262 260 258 256 257 259 260 260 259 260 260 260 257 259 257 257 254 260 260 261 267 266 262 263 263 263 262 262 260 261 260 259 255 255 256 252 254 252 251 250 251 251 248 246 244 244 242 240 244 243 244 246 244 243 243 243 244 244 245 245 246 246 247 248 248 247 247 247 246 246 247 247 247 248 248 248 248 248 249 251 252 252 253 253 255 255
Wind_Speed
3 4 5 6 7 7 9 10 11 13 13 4 3 2 2 4 5 1 3 6 8 7 7 5 4 6 3 3 4 1 3 3 1 1 1 2 2 1 2 3 3 3 6 2 4 4 6 5 7 3 4 8 11 5 6 3 2 3 3 2 2 4 1 0 11 6 8 7 8 4 4 3 1 3 2 2 5 8 10 10 5 7 4 7 8 11 1
4 3 4 5 6 6 7 9 10 11 9 2 3 0 2 2 2 1 1 4 2 6 10 10 10 7 5 5 6 1 2 2 4 5 2 3 1 4 2 3 5 6 4 3 7 4 9 5 14 8 5 7 6 5 6 7 1 2 5 3 3 1 3 6 10 7 4 3 4 6 2 2 2 4 5 6 5 4 9 5 3 8 5 11 10 13 5
4 4 3 3 4 5 6 6 8 10 10 5 2 1 1 2 2 2 1 2 3 8 6 8 5 6 8 8 11 10 4 5 10 7 5 2 4 1 3 3 1 4 1 3 3 3 11 5 2 2 2 4 2 6 8 6 1 3 2 1 2 3 3 3 7 7 9 7 9 5 4 2 1 1 3 4 4 9 3 5 3 8 4 12 10 10 7
6 5 4 4 4 3 3 4 5 6 9 8 4 1 1 1 0 2 1 2 4 5 3 1 5 6 6 8 9 8 11 5 2 6 7 8 3 4 2 1 1 1 2 5 5 8 3 7 3 2 2 2 2 2 6 4 2 3 6 3 1 2 2 4 10 13 14 12 7 3 6 8 10 5 3 6 7 3 4 4 8 12 13 13 12 15 15
7 6 6 4 5 4 4 4 4 5 7 7 2 1 2 2 1 1 1 2 4 7 3 7 4 4 3 6 2 12 12 7 4 9 4 3 6 2 6 5 4 4 5 8 8 6 8 7 10 7 11 3 3 6 4 4 8 1 4 3 2 1 5 8 11 12 12 11 14 13 11 13 12 12 15 11 7 6 8 10 13 9 12 15 8 14 13
8 8 6 5 5 5 4 5 4 4 5 8 3 1 1 1 3 2 3 2 4 6 8 6 9 9 6 4 3 7 7 4 6 1 2 1 1 3 2 7 10 11 10 5 6 4 9 5 10 7 2 3 5 4 4 5 4 6 1 1 2 2 7 8 10 13 10 11 14 8 5 4 7 8 10 11 11 12 13 16 15 9 12 17 15 17 18
8 8 7 6 7 5 5 4 4 3 2 6 3 1 5 2 2 1 2 2 3 1 2 5 3 4 11 7 7 10 13 14 8 3 2 0 2 6 8 5 9 9 8 7 9 7 10 9 8 5 2 4 1 2 2 1 4 6 3 3 1 1 5 7 8 11 7 8 7 6 8 8 9 10 10 11 12 15 17 18 14 14 17 17 17 15 17
10 10 9 8 7 7 6 6 5 4 3 4 2 1 1 2 0 3 3 1 4 3 2 1 1 5 5 8 10 13 11 13 12 4 5 7 6 1 11 11 9 6 8 10 11 11 13 9 10 2 4 2 2 2 4 3 3 3 2 2 4 2 6 6 1 6 8 8 8 8 9 9 11 10 10 10 14 16 15 14 16 17 15 14 16 15 3
12 11 11 10 8 7 7 6 6 6 2 2 1 2 1 1 1 0 2 3 3 2 0 3 2 3 4 10 7 7 9 11 3 3 1 3 3 0 6 4 5 1 5 8 11 1 2 2 1 1 0 4 1 1 3 5 1 3 1 0 2 3 4 6 7 9 12 9 11 9 9 10 11 12 13 17 19 18 12 16 3 6 13 11 8 11 3
13 13 12 11 10 9 9 8 7 7 3 3 0 0 1 1 2 1 1 3 2 3 0 0 1 8 6 5 5 3 3 4 5 5 2 7 7 4 4 5 3 3 3 6 3 2 4 3 2 1 2 3 5 3 4 6 3 1 2 3 3 2 2 3 6 9 10 12 11 9 5 10 13 14 17 17 16 16 17 6 5 1 2 4 10 3 5
14 14 13 13 12 11 11 10 9 9 5 3 3 2 0 1 1 2 1 2 3 4 1 3 4 3 3 4 1 2 2 6 6 2 2 5 3 5 4 5 5 2 4 3 2 3 2 3 3 3 5 8 8 7 7 9 9 9 6 2 3 5 7 8 4 7 9 15 11 3 6 14 15 3 1 5 12 9 12 7 3 3 1 1 3 3 3
14 13 14 14 13 12 12 12 11 12 7 5 5 3 3 3 3 2 1 4 5 3 6 6 6 3 1 0 2 0 4 4 2 3 4 5 6 4 3 3 2 2 1 2 3 3 4 3 2 3 4 8 10 11 11 13 14 10 8 9 7 9 9 10 3 6 10 8 6 11 14 15 3 2 2 5 7 7 4 6 4 7 5 5 4 3 0
15 16 14 14 14 13 13 13 13 13 10 6 5 4 3 3 4 2 2 2 4 2 3 5 0 2 0 2 4 3 2 3 2 4 6 7 8 4 1 1 1 2 3 1 2 5 5 7 7 8 8 7 7 10 13 14 16 13 10 12 12 11 13 5 3 4 2 1 4 7 10 3 1 2 1 0 5 8 9 2 5 3 4 5 2 4 5
16 14 15 16 16 15 15 15 15 15 14 10 6 6 4 3 4 2 2 2 5 2 5 8 9 9 6 7 6 7 3 6 5 3 6 3 7 7 3 2 2 2 2 1 1 3 5 2 4 4 5 1 5 7 10 11 12 16 14 12 12 13 6 3 6 5 8 6 9 14 5 6 6 1 2 3 2 3 1 2 3 7 2 3 3 4 6
19 18 16 14 15 16 17 15 15 15 17 12 7 4 5 5 6 4 1 3 5 4 4 6 1 3 3 3 3 1 2 3 3 5 2 1 1 3 2 2 0 1 3 2 1 1 3 2 5 6 3 2 7 6 4 2 3 4 11 9 10 10 12 8 8 6 9 7 8 7 6 10 2 2 0 0 3 1 3 4 4 6 4 6 6 7 7
18 20 20 19 16 16 16 18 17 17 18 13 8 6 7 8 5 4 4 3 1 8 9 12 6 4 3 2 3 5 3 1 3 1 3 2 3 3 3 1 2 1 1 2 2 2 1 2 5 3 8 5 4 1 4 2 5 3 4 1 7 8 11 9 9 4 2 2 6 5 7 6 3 8 5 4 4 3 5 4 5 6 3 5 10 10 8
19 19 20 20 20 20 19 19 20 20 17 11 6 6 6 8 7 6 5 2 5 11 2 3 2 4 3 1 1 1 3 3 3 1 2 3 2 1 4 2 1 1 3 4 2 2 1 2 2 3 4 2 1 5 3 2 1 5 2 3 4 4 5 8 9 6 5 5 7 9 2 3 2 4 3 6 2 2 2 6 4 3 6 5 8 8 7
20 20 20 21 20 21 21 22 21 20 19 19 9 7 5 6 8 6 3 6 9 8 10 5 4 4 6 5 3 2 3 0 1 0 2 2 1 1 2 1 1 3 4 3 2 2 3 4 7 7 8 3 3 2 4 2 1 5 1 1 1 1 2 3 9 7 8 11 8 4 6 2 2 5 6 4 2 2 3 13 2 1 4 5 6 7 7
20 20 20 20 21 21 21 21 22 22 22 23 9 3 5 8 9 9 5 6 7 9 5 7 9 8 4 1 5 3 4 5 5 3 2 3 4 3 5 3 2 1 1 5 1 4 5 5 1 2 3 4 3 6 2 3 5 1 2 3 1 4 1 5 1 5 9 6 8 9 4 5 4 6 7 4 3 1 9 3 4 1 4 2 7 7 8
20 21 21 21 21 21 21 20 20 20 22 23 13 7 3 9 11 14 10 8 6 10 10 5 6 12 6 8 7 5 1 0 4 5 4 5 3 2 3 4 4 4 1 2 2 2 3 5 6 1 1 4 5 5 1 6 2 4 1 3 3 5 4 5 5 2 2 0 4 4 7 1 6 1 2 1 5 7 1 1 4 2 4 5 4 6 8
22 21 22 21 21 21 21 21 21 22 23 22 17 7 6 7 11 12 12 10 6 8 11 5 4 11 7 11 14 12 10 11 7 6 8 6 5 5 3 3 5 3 5 4 6 5 4 3 3 3 3 4 6 2 5 2 4 7 4 6 4 2 1 3 3 4 4 5 6 5 6 2 4 2 3 3 6 4 3 3 9 7 4 5 5 6 8
21 21 21 21 20 20 20 21 21 21 22 22 19 5 9 8 9 11 11 8 7 9 3 3 5 9 11 12 10 10 13 12 12 10 6 3 2 7 4 2 5 4 3 3 3 2 1 2 3 1 3 3 1 5 2 2 4 3 3 1 4 4 9 7 9 2 5 6 6 7 3 3 5 3 7 10 13 7 4 5 7 7 6 5 4 8 9
22 22 22 22 21 21 20 21 22 22 21 21 16 7 10 6 8 9 8 7 5 3 1 2 1 3 2 3 5 8 10 6 5 3 5 5 6 5 8 7 7 3 1 4 6 5 5 6 7 4 1 4 8 7 1 7 4 2 5 4 7 2 3 0 0 6 5 5 10 8 2 8 13 13 12 11 10 7 4 5 5 7 9 6 7 7 8
22 22 22 22 21 21 20 21 21 19 20 22 17 5 8 8 8 7 5 6 8 7 5 6 4 9 13 15 12 3 3 3 6 9 5 6 8 6 2 5 2 2 3 6 7 6 4 3 4 2 8 5 5 4 8 6 8 4 0 5 2 6 2 3 6 7 6 10 9 3 8 12 10 13 13 6 4 8 5 4 6 8 9 8 5 8 8
23 22 22 21 21 21 20 20 21 21 20 20 17 10 5 1 4 9 9 7 5 7 8 5 14 19 9 7 4 6 9 10 9 9 7 9 12 12 12 7 9 10 9 5 2 4 3 3 2 1 8 5 7 10 6 7 9 8 6 7 2 8 6 5 12 13 11 16 14 10 10 12 12 11 10 12 10 8 7 7 7 8 7 5 6 4 7
24 23 22 23 22 21 21 20 20 20 20 21 16 6 7 8 8 9 6 4 0 2 7 10 8 0 6 6 10 11 10 11 10 10 13 14 15 15 11 2 2 0 1 3 4 4 4 2 3 4 5 6 7 8 9 8 8 6 11 12 11 5 6 5 4 7 12 14 13 13 14 11 10 12 10 10 11 12 12 10 7 6 6 6 2 1 3
23 23 23 23 23 21 21 20 20 21 21 20 12 5 8 6 10 13 12 11 4 5 7 10 3 0 1 11 2 3 6 10 10 12 12 12 12 10 7 7 7 3 3 2 3 5 2 4 4 9 7 6 2 3 3 2 5 4 7 12 5 3 11 5 3 7 11 11 12 9 7 9 10 7 9 9 6 4 6 5 4 3 3 3 4 5 2
24 23 24 24 22 21 20 21 19 19 20 18 11 7 6 6 8 11 9 8 14 11 2 2 1 3 1 3 4 6 9 10 11 11 12 13 12 10 9 10 9 8 8 7 5 4 4 6 11 5 4 1 3 8 8 9 8 9 11 13 9 10 13 8 10 10 12 13 14 12 11 11 12 14 9 1 2 0 2 2 2 1 2 1 2 6 8
25 23 23 25 23 22 20 20 21 20 19 14 2 4 1 8 8 11 13 9 3 5 4 2 1 1 4 5 4 8 6 9 11 11 11 11 11 11 11 12 12 11 9 9 6 6 8 9 6 6 5 3 3 6 3 7 9 11 15 16 14 12 9 12 14 13 14 15 16 9 4 8 10 4 1 2 3 2 1 1 1 1 1 2 2 2 5
25 25 25 24 23 22 23 22 22 21 16 1 5 1 3 5 9 11 12 10 8 4 5 6 7 5 1 2 3 6 8 9 10 12 12 10 10 11 11 11 11 11 8 7 8 9 9 6 8 8 6 6 4 2 4 7 9 13 16 17 14 11 12 13 13 14 15 15 9 3 4 7 2 2 3 5 5 4 2 1 2 4 4 3 5 5 3
26 25 24 24 22 23 24 22 20 18 13 4 3 3 4 7 3 10 16 12 11 8 3 3 6 1 3 2 2 10 11 10 10 11 13 13 12 11 9 8 8 8 8 8 8 10 5 7 7 6 6 11 10 4 7 7 11 13 18 12 11 12 13 14 13 11 11 11 6 0 1 5 2 1 1 6 5 5 3 2 2 3 4 4 5 6 7
25 25 23 25 25 23 21 23 22 17 7 8 10 8 3 3 3 12 20 14 10 6 4 4 4 2 3 1 2 2 8 10 7 4 2 5 7 7 5 10 8 8 9 9 9 4 8 8 9 10 9 11 9 2 5 11 14 19 14 9 12 11 9 7 6 1 5 4 2 5 8 6 6 1 2 5 5 3 3 4 4 4 5 5 5 5 6
26 25 24 25 25 24 22 22 22 15 8 10 13 15 5 7 3 10 14 9 5 3 2 3 4 1 1 4 1 2 3 2 1 4 4 4 6 4 5 6 5 4 10 7 5 5 4 8 8 11 10 3 4 4 7 13 18 16 15 15 15 10 5 2 5 6 4 4 2 7 11 2 1 3 2 3 2 3 4 5 6 6 6 7 8 7 5
27 25 24 24 24 23 22 21 21 19 9 3 5 9 9 7 3 7 6 6 3 2 2 3 2 4 4 2 1 3 5 7 5 7 4 2 3 5 4 3 6 4 6 11 7 5 3 2 8 5 2 7 8 4 11 16 16 15 17 18 5 2 4 4 3 3 3 3 3 2 1 2 1 2 1 1 2 3 3 3 4 6 8 7 8 7 7
26 25 22 21 23 23 20 18 8 6 6 6 4 1 7 15 13 16 14 6 5 4 3 3 2 4 3 0 4 4 4 4 3 6 7 4 2 6 2 2 2 6 5 5 4 8 8 8 4 4 10 2 3 10 10 9 15 19 16 15 1 3 4 2 2 2 2 2 2 2 2 1 2 2 1 2 3 3 4 3 3 4 9 11 10 8 7
22 22 21 22 21 15 6 6 4 5 4 4 4 7 15 16 16 13 14 9 3 3 4 4 5 9 7 9 7 3 5 3 2 3 3 2 1 0 2 3 5 7 2 4 6 7 8 4 5 9 5 6 12 9 12 14 17 17 13 8 2 2 1 0 3 2 3 2 2 0 1 3 3 3 2 3 3 2 2 4 5 3 5 11 13 10 8
21 21 21 15 3 3 4 4 3 5 5 5 7 10 13 12 2 6 7 6 3 2 4 4 5 8 10 6 1 3 5 5 3 3 1 2 5 1 2 2 7 2 2 3 4 7 9 6 6 9 7 11 14 11 4 1 2 4 1 4 3 3 3 4 3 1 2 3 2 2 1 1 2 2 3 3 3 1 3 4 4 5 9 12 12 11 9
20 18 6 4 3 4 3 5 5 6 9 10 11 4 2 2 3 3 2 4 2 5 3 2 8 2 2 4 5 4 6 4 2 6 2 3 2 2 1 2 4 4 7 5 7 4 2 3 5 8 13 12 1 3 2 3 4 4 5 4 4 3 3 3 1 1 0 0 2 2 4 2 3 1 3 6 3 5 6 4 5 4 7 9 10 10 12
17 5 4 5 5 4 5 3 6 16 9 3 3 2 2 1 3 3 4 3 2 6 4 7 9 6 7 8 3 3 6 6 4 4 6 4 5 4 2 3 3 3 3 1 7 7 3 3 3 4 12 7 6 1 5 4 5 5 4 3 3 2 3 3 4 4 3 1 2 2 1 4 7 9 6 10 9 7 6 7 7 6 7 9 9 10 10
5 6 5 5 7 3 2 1 16 12 3 5 1 2 2 2 4 4 1 1 2 3 1 6 6 8 12 13 9 8 3 6 9 9 9 3 1 5 1 2 2 3 4 5 4 3 4 3 3 2 9 10 5 5 4 5 4 4 2 2 2 3 3 3 3 3 3 4 5 4 4 5 5 7 8 8 9 12 9 6 7 8 8 9 9 10 11
4 3 3 6 4 4 4 6 4 3 3 2 2 1 2 1 2 1 1 3 3 2 1 2 2 3 4 6 7 10 3 4 3 3 3 3 1 6 2 1 0 2 2 2 2 4 2 1 2 5 10 1 3 2 3 3 3 1 2 1 3 2 3 3 4 3 3 3 3 4 5 5 6 7 7 8 9 10 12 11 11 9 10 11 12 11 10
5 5 1 4 4 5 6 3 2 3 1 2 3 4 4 1 1 0 2 4 5 1 3 2 2 5 6 10 8 5 2 0 2 1 2 2 2 4 3 0 1 3 4 2 3 1 2 2 2 5 3 2 1 2 2 3 2 1 1 2 2 2 3 4 4 4 2 5 4 5 5 5 7 8 7 8 9 10 12 13 14 12 11 12 10 11 10
17 12 7 5 2 0 1 3 3 2 4 3 3 2 2 3 3 5 3 1 1 2 2 1 1 1 1 3 2 0 2 2 2 1 2 3 1 3 2 0 1 1 3 2 2 1 2 4 4 8 3 5 3 3 2 2 1 0 0 2 2 2 3 3 4 5 4 5 5 5 6 7 8 8 7 8 11 14 13 12 14 14 12 11 11 11 11
6 3 3 1 3 3 3 5 2 4 2 2 5 7 3 2 2 2 1 4 3 2 4 6 4 6 5 2 4 1 1 0 3 2 0 1 2 1 1 2 4 3 3 0 2 4 5 3 7 3 5 3 3 3 2 1 0 1 2 1 1 3 4 4 4 5 5 4 4 5 5 7 9 8 6 7 8 14 17 15 13 13 12 11 12 11 11
4 1 2 2 2 3 4 3 2 3 7 5 4 4 5 10 9 8 10 4 5 6 6 5 6 7 6 2 3 1 1 3 2 4 3 3 1 0 3 4 1 1 2 3 0 2 1 5 3 1 5 5 4 2 2 1 1 1 2 3 4 2 3 4 5 4 6 5 7 7 7 7 8 9 8 9 9 8 11 15 13 11 11 11 11 11 11
4 5 4 3 4 3 3 2 2 1 2 3 5 7 8 8 7 7 3 2 4 1 7 8 7 6 4 1 5 4 1 2 2 2 2 1 3 4 3 0 1 1 1 0 1 6 8 8 5 4 5 5 3 2 1 2 2 1 1 3 2 3 4 5 5 5 6 7 6 6 8 7 8 9 11 10 9 10 10 12 11 11 11 10 11 12 11
2 1 1 1 1 2 2 4 5 4 4 4 6 8 8 7 4 2 2 1 4 2 3 1 2 3 6 2 2 1 1 0 2 2 3 1 2 1 1 2 2 2 2 3 4 4 7 6 3 4 5 3 2 1 1 2 2 2 3 4 5 6 6 5 5 6 7 6 8 8 8 8 8 9 10 12 11 9 11 11 11 10 10 12 12 11 11
4 1 2 2 4 3 7 4 2 3 2 1 2 2 1 2 6 3 1 1 0 2 7 6 4 2 2 1 4 4 2 1 2 2 2 1 1 2 0 0 2 1 3 4 8 8 5 2 5 4 3 2 2 1 1 2 3 3 3 4 5 5 5 6 7 7 7 8 8 9 9 8 9 9 10 12 12 11 10 10 10 9 9 10 10 10 10
2 3 5 3 1 0 1 3 9 8 2 1 0 3 6 7 6 4 2 1 2 4 1 3 2 3 1 2 3 3 1 2 2 2 2 0 2 3 2 3 2 2 5 7 5 1 2 3 3 3 2 1 1 1 2 2 3 3 4 4 5 6 6 7 7 8 7 8 8 9 10 9 9 10 10 10 11 11 8 8 8 9 9 10 10 9 9
2 1 3 4 2 1 0 1 1 5 0 1 2 4 3 4 4 2 2 3 0 1 1 1 2 1 1 3 0 1 1 1 2 0 2 2 3 0 2 2 4 7 4 0 2 2 2 2 3 2 1 0 1 1 2 3 3 4 4 5 5 6 6 7 9 9 8 9 9 10 9 9 10 9 10 11 11 10 10 9 9 9 10 9 9 8 8
3 2 1 2 2 4 7 5 9 7 6 9 7 6 5 5 4 4 1 4 4 3 2 3 2 2 2 1 2 1 2 1 2 3 5 4 2 3 4 7 7 5 2 0 1 3 4 2 2 0 0 1 2 3 2 4 4 4 6 6 7 7 8 7 8 9 9 9 8 9 10 10 10 10 10 9 10 10 9 9 8 8 8 8 6 6 6
2 2 1 0 2 2 0 1 3 2 2 3 5 1 2 3 2 2 0 3 6 8 7 3 4 2 2 3 3 1 1 2 0 2 1 4 3 5 5 6 3 4 6 6 3 1 1 0 1 1 1 1 2 3 3 4 4 6 5 6 6 6 7 8 8 8 8 8 8 8 10 10 10 10 8 8 8 7 7 7 6 5 6 5 6 7 6
Wind_Direction
266 314 323 326 330 342 350 352 3 11 14 38 351 304 174 204 215 6 151 190 172 156 228 222 216 228 255 2 277 201 272 222 244 340 287 251 214 265 241 204 216 245 237 186 240 196 255 183 242 222 233 239 226 229 235 230 338 354 299 307 286 60 132 0 260 262 279 293 287 315 142 130 19 288 177 142 191 200 226 240 260 269 306 286 264 248 299
319 313 328 331 325 334 344 348 353 3 34 75 335 18 217 319 307 16 335 231 300 202 212 216 221 234 266 254 263 204 212 263 272 238 225 182 287 217 214 320 230 253 213 203 244 170 280 209 240 255 221 259 260 321 326 13 273 233 251 278 272 319 275 262 277 278 288 294 332 302 5 82 199 217 241 225 251 295 267 281 353 273 198 251 262 263 261
273 284 290 297 320 331 339 345 348 2 17 56 30 80 346 351 300 230 265 235 222 220 216 236 236 235 241 241 252 256 250 214 239 254 254 228 213 156 268 231 14 247 205 257 263 225 232 283 270 222 217 236 353 27 37 4 85 46 319 214 325 271 197 198 242 237 251 253 250 238 242 232 227 286 252 261 201 241 294 296 234 253 178 222 242 267 258
252 254 267 288 306 321 326 341 337 354 18 44 61 258 118 192 210 287 85 267 258 255 297 343 226 239 246 242 242 247 256 260 196 186 254 211 230 240 269 341 12 300 282 255 236 252 210 224 272 307 268 279 335 99 9 60 26 8 84 23 54 218 309 242 246 252 258 265 277 289 310 292 285 272 246 279 284 238 219 273 263 258 272 265 262 273 286
256 263 269 279 291 305 321 319 347 334 353 52 91 10 131 327 126 186 271 318 271 264 224 244 241 232 183 248 186 240 242 255 285 189 265 244 203 223 214 220 204 243 207 238 259 240 270 225 253 238 259 231 248 314 18 99 22 272 108 346 82 257 239 216 245 245 258 267 271 278 281 275 268 274 277 282 267 268 268 249 257 270 284 257 261 266 277
255 257 263 273 287 289 294 315 315 343 337 34 62 64 236 101 254 104 237 202 222 209 247 238 235 247 286 270 301 274 277 244 245 356 255 17 41 187 336 239 219 226 229 257 254 258 254 255 253 259 263 317 326 346 347 61 340 48 9 308 142 214 252 264 269 269 266 270 276 280 271 249 265 270 280 281 282 277 264 260 262 267 261 277 284 286 285
265 262 260 263 258 259 273 284 298 304 29 86 92 93 291 130 308 226 311 129 266 309 302 356 292 264 237 255 255 264 254 258 246 206 311 88 267 206 255 214 233 220 232 216 249 230 266 249 250 240 234 215 17 298 332 200 58 41 28 345 199 228 250 252 266 284 281 278 273 278 272 272 264 256 249 248 257 262 263 269 274 265 261 267 277 281 283
259 257 251 247 250 252 253 253 251 263 125 83 67 224 116 295 134 296 23 42 307 301 335 325 359 249 229 243 215 242 245 261 267 255 224 253 255 150 239 239 241 211 217 211 227 220 236 252 258 220 126 303 164 229 233 265 352 38 23 329 294 211 273 10 318 279 268 269 273 273 274 280 281 284 286 279 270 267 266 277 269 271 274 268 265 270 280
253 252 247 241 245 248 251 246 247 255 137 43 151 279 138 246 46 291 20 324 226 91 316 246 277 272 235 240 247 253 248 253 302 274 29 227 262 298 272 317 270 185 235 210 226 200 143 87 326 101 160 243 312 104 267 102 296 330 285 241 307 338 280 334 320 304 284 285 283 286 297 291 281 278 276 272 268 273 271 262 290 260 271 284 305 280 217
249 252 252 250 242 242 237 242 241 248 183 108 255 6 243 68 297 82 241 267 254 134 149 139 95 239 243 252 266 267 318 23 320 300 105 58 79 74 50 2 41 303 329 292 346 39 54 59 60 318 284 258 277 261 239 293 270 279 183 220 273 223 296 316 298 281 266 275 283 305 327 306 280 255 248 254 260 256 264 267 75 250 158 222 258 287 90
243 246 245 246 244 239 241 243 239 235 126 156 140 229 89 119 269 10 343 217 278 143 131 266 183 248 86 5 20 7 65 9 24 265 289 86 353 63 34 4 356 322 308 347 66 146 187 192 213 212 238 258 259 252 257 253 242 231 243 270 215 228 241 259 251 262 290 285 295 8 329 277 263 278 172 197 248 253 254 252 100 322 155 185 86 155 89
239 243 242 242 240 239 241 241 237 234 175 182 137 183 201 121 75 78 116 221 266 125 174 217 197 268 46 267 90 321 320 340 349 22 249 308 317 356 44 355 309 308 12 55 345 337 325 335 290 296 254 256 249 244 237 238 242 230 222 231 247 255 264 259 217 256 267 289 346 310 263 260 332 -0 344 52 86 87 110 115 147 114 99 102 113 177 78
238 238 239 238 236 234 236 235 233 235 216 155 146 199 221 158 128 157 160 196 255 177 168 260 271 208 249 34 318 229 205 222 244 277 281 276 290 290 238 262 224 262 56 352 4 340 319 296 286 256 254 243 251 249 250 246 247 245 224 213 221 244 249 246 249 196 340 215 227 244 258 116 152 87 314 151 110 122 95 73 155 158 121 111 93 220 204
241 252 250 240 236 235 233 233 234 231 222 161 164 188 156 142 133 150 172 185 265 224 216 269 266 264 259 259 247 267 297 284 265 221 268 243 246 257 270 165 216 112 194 130 331 267 286 248 300 345 276 164 306 284 261 258 250 249 244 221 214 225 232 176 259 208 229 222 214 239 300 288 204 300 230 155 188 167 157 195 215 164 222 150 207 241 219
252 247 249 258 254 236 231 233 233 230 230 177 171 149 160 173 151 158 225 240 254 273 176 226 222 193 201 237 216 235 256 267 320 283 236 291 267 232 191 234 117 150 186 165 298 358 222 250 286 282 318 330 279 258 338 320 296 241 244 231 200 202 206 210 222 256 219 235 259 259 225 243 250 185 222 37 213 123 285 105 255 121 248 247 203 223 225
246 243 246 245 248 257 248 234 227 228 231 205 162 180 195 179 164 135 157 181 240 269 247 223 208 150 150 209 184 167 223 203 222 242 312 262 234 303 278 267 295 108 49 95 210 145 240 156 243 221 251 244 251 59 293 21 325 309 33 50 175 210 213 218 221 250 276 267 243 241 249 262 139 203 195 243 168 158 212 113 268 165 219 251 191 218 223
248 247 246 246 244 244 248 246 233 230 236 213 169 185 205 176 169 169 164 205 218 229 23 78 165 178 182 294 155 337 215 212 224 218 285 268 230 231 298 329 313 137 174 78 258 135 278 235 240 215 269 153 65 215 297 351 254 323 293 25 45 122 200 198 235 231 228 255 264 259 257 253 228 204 238 217 95 183 154 298 304 112 268 224 199 218 236
247 247 245 246 244 243 240 240 239 236 233 229 199 180 202 188 179 139 179 195 228 251 236 165 117 164 192 182 178 209 75 331 29 241 217 242 45 270 266 357 266 283 158 128 203 101 202 213 217 232 232 238 154 334 245 217 147 233 225 213 196 234 299 160 208 233 242 246 257 291 289 291 147 179 231 264 207 143 285 262 266 175 177 209 190 220 236
249 249 248 247 245 245 245 244 241 238 233 229 216 154 223 183 180 175 184 203 215 244 211 175 211 225 218 136 191 177 190 179 183 157 259 1 257 193 163 238 157 279 44 157 49 156 191 236 54 159 226 282 148 212 231 248 238 17 141 305 317 299 108 309 95 213 233 229 243 252 258 237 171 264 198 223 91 224 237 243 152 175 294 214 188 218 235
250 251 249 249 248 246 244 243 243 243 239 232 216 200 202 175 187 183 185 208 214 242 239 203 190 215 204 195 212 201 276 235 196 173 172 194 259 72 1 280 321 93 347 103 212 229 120 218 202 156 246 223 253 178 9 234 268 170 232 214 173 217 134 238 195 234 40 319 257 283 265 301 116 220 16 177 135 227 210 351 311 269 259 256 240 210 243
247 246 247 247 247 248 246 244 242 243 243 238 228 200 227 188 188 200 199 201 206 236 257 206 178 221 196 213 208 202 184 203 190 204 220 209 204 105 211 218 219 125 209 153 189 228 165 234 238 195 227 156 252 64 213 204 312 266 179 226 240 249 87 255 267 189 221 203 212 208 213 206 221 106 193 253 226 255 321 343 292 282 224 223 240 237 234
251 250 248 248 249 248 248 247 245 244 242 240 233 205 226 202 186 201 209 194 198 216 213 208 196 216 216 218 212 200 203 210 204 189 185 214 246 198 212 146 196 149 208 123 59 356 322 201 37 61 260 258 28 225 163 312 257 262 338 84 324 215 185 201 237 244 158 204 232 242 215 247 254 220 243 251 268 273 213 220 239 268 266 217 214 249 248
249 249 250 249 248 248 246 245 245 244 242 240 236 192 221 200 190 191 145 214 245 287 257 236 228 258 255 262 227 208 221 223 195 185 168 202 252 223 217 221 241 201 185 164 187 187 206 140 223 164 337 201 220 259 258 193 251 244 231 231 227 284 179 220 99 255 248 239 238 256 311 278 279 277 271 270 278 279 236 213 243 236 242 235 238 250 253
248 248 248 248 247 247 249 249 246 242 243 244 238 167 222 208 177 151 178 207 205 237 252 224 214 234 216 223 219 212 213 220 199 210 200 187 235 260 234 226 145 195 212 207 172 214 209 137 219 144 235 224 103 216 242 252 227 209 147 297 258 246 181 139 225 265 273 263 243 152 243 258 264 266 277 284 225 255 264 228 218 251 267 269 238 238 252
248 247 247 247 247 245 245 247 247 246 244 246 246 230 214 154 181 173 169 194 202 198 231 222 218 235 224 209 176 201 211 209 212 209 201 205 216 225 231 194 187 202 222 204 148 76 58 202 265 174 237 231 157 249 210 241 263 143 237 237 267 283 156 186 230 242 228 256 263 256 247 252 264 273 280 280 280 267 256 242 248 258 267 265 269 240 249
244 244 245 245 244 244 244 244 246 247 245 242 237 186 189 207 172 179 196 225 153 153 227 242 266 74 166 155 206 206 202 204 205 202 206 211 216 223 234 79 310 25 169 127 117 191 191 188 205 233 241 265 169 239 245 212 247 190 226 243 221 226 98 218 187 222 246 257 270 272 270 275 271 260 250 249 257 269 275 275 271 266 268 279 299 217 254
241 244 245 245 244 244 245 246 246 245 246 246 241 188 196 195 176 181 193 190 177 288 211 241 211 271 159 203 195 161 201 201 205 209 220 222 226 230 228 229 221 213 160 205 215 198 188 215 184 238 215 246 195 224 247 301 213 236 245 251 231 181 241 219 96 245 252 246 253 247 263 271 265 253 245 249 257 245 261 285 298 315 301 334 314 293 268
241 240 243 244 243 244 244 244 246 248 248 248 243 220 189 186 198 200 203 189 191 217 117 244 191 241 48 292 242 201 197 196 196 205 214 219 218 218 223 222 219 227 228 221 229 179 192 205 234 232 239 182 224 245 229 256 264 256 246 248 218 215 232 224 225 231 254 253 249 252 253 263 265 269 286 51 26 141 248 297 319 6 70 58 356 311 311
240 240 241 242 241 240 239 242 244 244 245 242 186 115 215 220 202 201 204 212 224 259 260 219 74 47 221 244 170 201 212 186 194 202 209 214 212 214 215 217 218 224 226 227 234 234 228 231 225 228 221 165 186 250 224 227 230 239 241 241 237 234 232 233 240 249 258 263 266 258 199 238 261 273 59 78 41 85 89 97 86 75 339 328 315 263 277
244 239 238 240 241 240 239 238 239 241 240 180 89 134 217 252 211 209 197 195 195 209 223 226 234 243 4 104 206 201 197 197 196 198 205 205 210 210 211 212 223 220 216 216 218 237 232 242 232 227 225 148 210 223 219 237 244 246 249 248 249 248 234 237 238 239 250 255 267 261 220 247 264 111 116 92 57 48 81 50 16 336 321 325 301 292 252
238 241 242 239 235 236 239 238 235 236 227 141 120 137 195 256 208 176 193 189 185 188 228 220 241 57 322 256 164 196 193 191 195 203 210 208 209 208 207 199 223 196 212 216 223 234 227 231 230 225 205 198 218 196 240 242 254 257 251 243 245 242 239 239 240 245 256 266 291 64 252 259 203 88 82 42 20 28 10 301 298 295 283 290 271 266 280
239 237 236 238 239 237 236 237 236 228 194 176 195 195 177 207 203 186 191 187 160 173 173 226 242 206 245 251 226 214 187 193 188 177 205 161 223 197 205 191 208 185 207 224 225 233 226 238 239 239 232 213 212 234 219 237 248 252 259 249 243 244 238 243 240 142 51 24 20 312 286 267 68 325 284 8 336 347 301 309 299 296 290 282 283 277 274
240 236 233 235 235 231 231 238 238 227 187 210 220 235 210 52 28 179 183 136 121 189 182 212 210 185 234 240 319 293 171 122 186 153 248 167 208 148 218 183 205 201 212 223 209 233 207 221 221 240 235 161 214 220 236 234 242 253 261 261 259 262 255 84 88 88 80 24 59 212 256 301 0 13 1 312 321 309 335 325 324 314 312 310 304 300 288
235 233 232 233 235 232 230 230 233 234 226 202 236 225 229 208 115 187 151 142 136 177 154 186 207 207 237 19 55 261 154 166 204 166 244 230 175 142 199 123 185 194 194 209 219 234 222 200 218 238 66 214 217 215 240 243 248 256 255 257 256 129 138 126 94 99 57 58 40 37 339 295 285 297 269 333 331 331 318 310 315 328 310 301 295 300 307
244 236 231 231 233 238 233 228 226 214 198 219 248 303 164 195 190 164 165 173 146 204 179 237 165 219 228 309 207 254 173 107 181 195 190 260 166 178 152 107 211 188 231 150 239 224 235 224 132 110 227 175 176 230 235 251 249 249 252 257 183 103 83 214 228 74 24 21 9 342 319 346 18 28 36 305 298 296 321 319 349 336 314 304 301 308 314
237 232 227 228 229 229 237 226 176 171 195 195 216 181 180 193 189 172 182 206 184 173 194 206 180 216 201 229 226 235 122 216 171 112 192 141 8 180 128 153 221 215 158 182 224 207 225 158 110 233 192 204 227 224 235 237 246 253 255 260 70 131 173 292 87 41 319 334 301 0 68 35 31 291 287 271 270 287 344 316 309 303 286 293 299 309 309
231 232 224 220 208 86 193 200 153 188 210 157 175 173 187 179 147 172 196 205 233 160 196 158 194 212 192 215 120 240 127 209 153 136 177 155 201 309 90 142 216 164 174 247 210 217 229 147 206 237 219 231 242 239 267 21 287 289 36 62 63 58 76 68 58 20 350 39 106 129 32 330 312 266 262 261 271 294 319 305 309 316 301 295 299 302 299
225 221 198 124 122 185 173 189 193 185 156 152 141 94 353 94 168 199 187 218 193 144 236 163 231 184 90 161 233 172 143 229 97 173 283 229 145 250 208 191 219 169 218 213 228 162 67 169 209 221 243 237 326 101 132 91 80 65 65 69 53 62 62 47 26 78 88 272 271 314 337 321 267 250 316 304 317 307 294 290 299 282 279 284 287 295 302
213 174 120 184 157 203 190 220 160 145 127 64 92 111 207 161 131 220 218 188 184 216 170 195 218 160 176 207 212 141 178 164 176 189 189 210 143 267 133 175 229 142 267 64 279 117 217 228 236 232 245 229 248 149 95 101 83 69 67 53 61 29 46 30 25 33 40 10 327 332 268 287 306 304 321 308 302 290 292 297 288 282 280 282 287 290 288
122 173 171 150 197 184 117 156 148 132 109 147 190 127 199 176 157 237 109 60 289 288 185 228 194 196 194 203 183 221 152 146 183 212 198 251 162 172 227 88 248 111 216 182 239 89 155 222 228 191 254 237 223 73 99 86 86 66 56 34 16 18 30 31 2 353 351 325 316 304 307 299 292 288 292 290 296 297 295 277 275 283 284 280 283 289 290
155 108 143 187 174 142 148 124 78 47 122 130 102 230 125 258 206 183 121 226 213 237 171 210 83 155 198 207 212 224 206 180 5 62 97 178 233 85 90 186 205 84 219 216 257 88 82 82 229 194 238 31 76 117 83 86 79 45 48 11 33 347 21 346 346 326 316 291 284 279 282 279 275 274 274 276 281 282 287 292 291 286 288 290 292 290 292
180 150 126 73 87 103 105 64 116 118 155 177 139 204 174 201 51 13 173 177 224 197 279 137 236 180 214 185 207 172 274 126 117 130 120 240 229 159 218 253 328 177 234 198 106 64 109 225 224 258 240 188 165 98 128 98 89 69 331 51 346 7 347 318 316 296 263 265 271 279 274 275 272 272 271 278 278 281 288 292 291 288 285 287 289 290 293
109 110 104 106 73 304 125 142 196 144 169 171 135 219 167 157 193 163 219 232 303 120 253 55 235 116 310 66 358 180 182 162 157 182 107 206 23 59 116 52 100 249 220 35 74 87 176 227 233 244 172 190 157 158 122 186 89 243 307 316 341 292 317 312 286 284 278 266 271 274 277 275 271 267 271 271 280 280 276 274 279 285 288 289 289 290 287
116 101 71 133 117 247 127 205 161 77 189 179 155 190 143 172 249 101 158 236 191 237 206 148 202 141 212 190 155 146 25 80 123 79 17 292 94 198 109 210 209 242 57 47 142 202 224 235 223 230 182 176 188 200 163 143 1 346 349 268 294 298 288 282 292 285 291 280 271 271 274 274 279 279 273 269 267 274 279 279 275 278 283 286 285 284 282
130 70 103 103 184 204 106 222 96 143 193 194 171 197 172 198 195 182 201 217 144 204 187 176 152 178 194 213 39 313 140 200 326 115 211 133 62 180 129 232 192 37 141 218 199 309 5 268 238 124 180 188 169 184 158 205 195 273 297 308 276 277 278 279 279 295 284 290 284 286 284 284 287 287 285 279 273 266 274 281 285 286 283 283 282 282 280
163 169 145 146 193 200 161 202 109 202 269 169 199 184 177 202 164 202 215 63 160 160 158 194 185 170 176 242 158 203 85 99 109 204 139 93 128 232 217 0 92 101 346 86 190 218 218 233 203 193 156 158 132 159 130 256 335 307 8 287 283 286 290 290 284 283 286 287 289 285 284 287 288 293 292 287 284 279 273 272 276 277 281 282 280 278 282
133 111 106 134 155 209 111 179 207 202 177 193 197 177 172 171 166 121 121 120 168 194 93 3 150 185 157 197 92 343 70 50 143 214 88 94 192 240 57 105 216 187 184 224 231 247 254 244 169 142 142 142 134 162 183 275 297 287 278 281 299 299 298 299 293 288 288 294 292 293 292 290 291 288 290 290 282 272 271 271 272 270 270 270 274 279 281
162 125 98 156 199 149 182 217 134 87 16 112 210 168 219 123 119 220 222 130 278 128 149 131 112 90 33 296 81 179 170 160 67 295 147 190 47 54 157 137 233 239 188 172 221 216 216 119 160 153 151 119 151 136 279 276 279 274 278 281 280 287 291 293 299 300 299 300 296 293 291 292 287 287 283 280 281 279 273 270 269 268 267 270 273 275 279
93 136 161 179 210 141 250 107 143 157 185 7 161 115 126 139 196 173 157 138 134 167 187 110 187 88 188 139 140 160 226 212 130 216 66 60 143 210 168 223 181 263 249 198 224 209 197 156 119 113 119 118 153 175 252 256 266 276 280 288 297 303 307 304 294 295 297 293 292 292 289 288 287 283 280 279 278 278 274 274 277 276 273 272 275 277 281
111 51 47 101 88 1 203 323 136 175 39 357 135 184 195 147 149 207 187 103 119 80 195 261 248 131 188 121 198 145 231 221 168 97 84 199 197 188 76 266 228 199 243 230 216 229 136 108 100 82 123 217 292 271 292 288 309 309 311 309 305 300 297 299 303 301 300 294 287 283 284 285 281 276 274 275 277 282 286 284 278 275 276 273 273 274 277
4 62 156 341 135 193 132 168 186 202 210 211 192 199 172 174 145 160 144 129 138 84 73 155 170 111 111 55 109 132 237 117 95 181 160 196 164 137 193 225 233 209 209 285 128 117 147 168 136 140 345 302 275 293 284 293 301 294 296 299 304 307 306 303 293 289 284 283 283 285 283 276 271 271 273 275 280 283 285 284 280 274 273 275 269 274 289
110 106 214 36 66 22 0 95 48 101 143 128 138 220 122 146 149 175 312 115 138 159 190 164 113 120 115 188 212 189 27 40 122 53 346 259 151 155 213 199 209 194 159 159 175 192 156 235 170 175 204 231 267 273 285 299 310 313 313 306 297 295 287 284 282 281 282 286 282 275 273 274 275 275 277 279 280 289 291 294 292 290 290 288 290 290 292